OPS 4682 DEB, 38390

Orbit data source: Space-Track

OPS 4682 DEB, 38390 is space debris in LEO originally from a launch on Sat, 03 Apr 1965 UTC launched from the Air Force Western Test Range (AFWTR). Debris objects in space refer to the collection of defunct objects orbiting the Earth. Examples of debris include non-operational satellites, rocket bodies, and fragments generated from explosions, collisions, or faulty payload assembly.

Loading next visibility...
Identifier
38390, 1965-027CT
Orbit
LEO
Country
Flag of USUS
Related business
Manufacturer
Unknown
Mission
Spacecraft
Bus & Motor
Unknown
Mass
Unknown
Launch date (UTC)
1965-04-03 (61 years ago)
Launch vehicle
Unknown
Launch site
Air Force Western Test Range (AFWTR)
Object type
Payload
Rocket body
Debris
Shape & HBR
Unknown shape, 0.1 m
Radar Cross Section
Small (<0.1 m²)

Expand to show TLE details & history
Last TLE update: 1 week ago

TLE from 1 week ago
0 OPS 4682 DEB
1 38390U 65027CT  26165.82752636  .00000635  00000-0  21477-2 0  9999
2 38390  90.2305 358.9061 0032681  67.0631 293.3933 12.97774241612396
Epoch: 2026-06-14T19:51Z
TLE epoch observation values (Epoch: 2026-06-14T19:51:38.277Z)
Latitude
-0.00005°
Longitude
157.87394°
Altitude
1,263.842 km
Speed
7.228 km/s
True Right ascension
23h 55m 37s
True Declination
0° 00' 00"
Sunlit
Object was in daylight at epoch
Visualization orbit readout
Latitude
Unknown
Longitude
Unknown
Altitude
Unknown
Speed
Unknown
Apparent Right ascension
Unknown
Apparent Declination
Unknown
Sunlit
N/A
Visualization observer readout
Local Sidereal Time
01:49:53
Azimuth
Unknown
Elevation
Unknown
Doppler factor
Unknown
Orbital elements
Apogee altitude
1,292.938 km
Perigee altitude
1,242.962 km
Semi-major axis
7,646.087 km
Eccentricity
0.00327
Inclination
90.2305°
RAAN
358.9061°
Arg. of periapsis
67.0631°
True anomaly
293.04903°
Mean anomaly
293.3933°
Eccentric anomaly
293.22122°
Mean motion
3.24627 °/min
Orbital period
110.9 mins
BSTAR
0.0021477
Loading maneuver chart data...
Computing Atmospheric mass density...
Loading historical data...
Loading historical data...
Loading historical data...
Loading historical data...
Loading historical data...
Loading historical data...
Loading historical data...

Documentation

Showing up to 5 results
|